Location: *
(2.5500°S, 65.9667°W)
Time: 16:49:34
(UTC+00:00)

A-11 Canister half - Pass Details

Date: 16 April 2024
Orbit: 1525 x 1683 km, 47.3° (Epoch: 21 May)

Event Time Altitude Azimuth Distance (km) Brightness Sun altitude
Rises 22:36:33 0° 275° (W) 4,769 14.4 -3.7°
Reaches altitude 10° 22:42:00 10° 250° (WSW) 3,752 12.1 -5.0°
Maximum altitude 22:46:08 13° 224° (SW) 3,460 11.3 -6.0°
Drops below altitude 10° 22:50:15 10° 197° (SSW) 3,714 11.1 -7.0°
Sets 22:55:40 0° 172° (S) 4,682 11.3 -8.4°
